Weather in Chakvi

Georgia     41°43′45″N   41°44′16″E
temp.,
°C
wind,
m/s
gust,
m/s
humid.,
%
clouds,
%
prec.,
mm/h
press.,
hPa
HPBL,
m
1 march, mon
mon101:00+5wsw5794100 5.8 1023546
04:00+5wsw4589100 10.9 1024537
07:00+4s2288100 2.7 1025263
10:00+5s3383100 3.2 1026453
13:00+5ssw3491100 2.3 1026330
16:00+6ssw447997 2.9 1025608
19:00+5sw348997 0.3 1027309
22:00+4s238096 0.6 1029232
2 march, tue
tue201:00+3se227547 0.1 1030175
04:00+3se337060 0.1 103182
07:00+3se2367100 0.0 103184
10:00+5ese116097 0.0 1031190
13:00+7nw216019 0.0 1029636
16:00+7w226822 0.1 1028588
19:00+5sw128322 0.0 1028216
22:00+4sse118116 0.0 1030141
3 march, wed
wed301:00+4se22787 0.0 1029124
04:00+3se22714 0.0 102995
07:00+3se22670 0.0 102872
10:00+6ssw236820 0.1 1027383
13:00+6wsw347497 0.2 1025733
16:00+5sw348398 0.9 1024542
19:00+5ssw3586100 0.4 1026490
22:00+5sw358397 1.6 1028694
4 march, thu
thu401:00+4s3487100 1.1 1029437
04:00+4sse2479100 1.8 1030375
07:00+4sse337285 0.1 1030160
10:00+6sse226591 0.1 1029258
13:00+7nnw226729 0.0 1027745
16:00+8n347329 0.1 1024659
19:00+6nne238024 0.1 1025264
22:00+5e128116 0.1 1025120
5 march, fri
fri501:00+4se227248 0.0 102458
04:00+3sse236739 0.0 102297
07:00+3se22597 0.0 102276
10:00+7ese11523 0.0 1022245
13:00+9nnw22540 0.0 1021401
16:00+10nw21590 0.0 1021353
19:00+8ne11650 0.0 102246
22:00+6ese33610 0.0 102553